Location: St. Louis
(38.6270°N, 90.1994°W)
Time: 05:15:54
(UTC-06:00)

Vanguard 2 - Pass Details

Date: 08 December 2021
Orbit: 553 x 2936 km, 32.9° (Epoch: 19 January)

Event Time Altitude Azimuth Distance (km) Brightness Sun altitude
Rises 17:21:32 0° 265° (W) 3,561 12.6 -8.2°
Reaches altitude 10° 17:24:24 10° 249° (WSW) 2,903 12.2 -8.8°
Maximum altitude 17:29:42 22° 201° (SSW) 2,658 10.8 -9.7°
Drops below altitude 10° 17:37:05 10° 157° (SSE) 4,192 11.3 -11.1°
Sets 17:42:23 0° 145° (SE) 5,660 11.8 -12.0°
